Overview Statistics Trail Chart Weather Telemetry Raw packets
 

This is the latest recevied weather packets stored in our database for station/object YD1OCG-15. If no packets are shown the sender has not sent any weather packets the latest 10 day(s).

<< 1 2 3 4 5 6 >>
Time Temp. Humidity Pressure Rain* Wind** Luminosity Snow
1788521964 27.78° C 72% 1015 hPa - - - -
1788520164 28.33° C 66% 1014 hPa - - - -
1788518363 28.89° C 10% - - - - -
1788516563 29.44° C 45% 1012 hPa - - - -
1788514764 29.44° C 40% 1012 hPa - - - -
1788512964 30.56° C 60% 1012 hPa - - - -
1788511164 30.56° C 58% 1012 hPa - - - -
1788509364 31.11° C 59% 1012 hPa - - - -
1788507563 31.11° C 59% 1011 hPa - - - -
1788505763 31.11° C 59% 1012 hPa - - - -
1788503963 31.11° C 61% 1012 hPa - - - -
1788502945 30.56° C 61% 1013 hPa - - - -
1788501145 30.56° C 62% 1013 hPa - - - -
1788499345 30° C 61% 1014 hPa - - - -
1788497546 30° C 62% 1014 hPa - - - -
1788495745 29.44° C 63% 1015 hPa - - - -
1788493945 28.89° C 66% 1015 hPa - - - -
1788492146 28.33° C 66% 1016 hPa - - - -
1788490345 27.78° C 67% 1016 hPa - - - -
1788488546 27.78° C 68% 1017 hPa - - - -
1788486745 26.67° C 53% 1017 hPa - - - -
1788484945 26.11° C 53% 1016 hPa - - - -
1788483146 25.56° C 54% 1016 hPa - - - -
1788481345 25.56° C 74% 1016 hPa - - - -
1788479546 25.56° C 74% 1016 hPa - - - -

* Rain since midnight (hover to see other rain measurements)
** Current wind speed in m/s (hover to see current wind gust speed)